Weather observations for the past three days for
Green Bay, Austin Straubel International Airport
Imperial (Metric)
Date Time (cdt) Wind (mph) Vis. (mi.) Weather Sky Cond. Temperature (ºF) Relative Humidity Wind Chill (°F) Heat Index (°F) Pressure Precipitation (in)
Air Dwpt 6 hour altimeter (in) sea level (mb) 1 hr 3 hr 6 hr
Max. Min.
23 17:53 N 10 8.00 Overcast BKN008 OVC013 68 63 84% 30.02 1016.4
23 16:53 N 13 10.00 Overcast BKN015 BKN030 OVC039 71.1 64 79% 29.99 1015.5
23 15:53 N 10 10.00 Overcast BKN017 BKN022 OVC065 72 64 76% 29.99 1015.5
23 14:53 N 12 10.00 Overcast OVC015 71.1 64.9 81% 29.99 1015.5
23 13:53 N 12 10.00 Overcast BKN008 OVC014 71.1 66 84% 29.99 1015.2
23 12:53 N 14 10.00 Overcast BKN012 OVC018 73.9 66.9 73.9 68 79% 29.97 1014.6 0.1
23 11:53 N 6 4.00 Light Rain Fog/Mist FEW006 SCT012 OVC027 70 66.9 90% 29.98 1014.9 0.01
23 10:53 N 3 6.00 Light Rain Fog/Mist BKN008 BKN014 OVC022 71.1 66.9 87% 29.97 1014.6
23 09:53 E 5 10.00 Overcast OVC008 71.1 66 84% 29.97 1014.6 0.09
23 08:53 SE 6 10.00 Overcast SCT006 BKN029 OVC035 70 66 87% 29.97 1014.7 0.01
23 07:53 Calm 10.00 Overcast FEW019 SCT042 OVC085 68 66 93% 29.97 1014.5 0.08
23 06:53 SE 6 10.00 Overcast SCT006 BKN070 OVC110 68 66 70 66.9 93% 29.97 1014.5 0.28
23 05:53 E 6 10.00 Overcast SCT023 OVC085 66.9 64 91% 29.96 1014.1
23 04:53 N 5 10.00 Light Rain FEW036 SCT090 OVC110 66.9 64 91% 29.95 1014.0 0.07
23 03:53 W 9 9.00 Light Rain BKN023 BKN030 OVC043 69.1 66 90% 29.95 1013.8 0.21
23 02:53 SE 7 10.00 Thunderstorm in Vicinity SCT033 BKN042 OVC110 69.1 66 90% 29.94 1013.6 0.14
23 01:53 SE 5 10.00 Light Rain SCT041 BKN060 OVC090 69.1 66 90% 29.94 1013.5 0.07
23 00:53 SW 3 5.00 Thunderstorm in Vicinity Light Rain Fog/Mist SCT060 BKN075 OVC100 69.1 64.9 80.1 68 87% 29.96 1014.2 0.24 0.27
22 23:53 W 8 6.00 Light Rain Fog/Mist FEW027 BKN044 OVC090 70 66 87% 29.98 1014.9 0.02
22 22:53 Calm 10.00 Overcast SCT046 OVC085 72 62.1 71% 29.95 1013.9 0.01
22 21:53 S 9 10.00 Overcast SCT080 OVC090 75 57.9 55% 78 29.96 1014.2
22 20:53 S 7 10.00 Mostly Cloudy BKN070 75 59 58% 77 29.95 1013.8
22 19:53 S 7 10.00 Partly Cloudy SCT085 77 59 54% 79 29.95 1013.9
22 18:53 S 7 10.00 Fair CLR 80.1 59 84.9 80.1 49% 81 29.94 1013.7
22 17:53 SW 8 10.00 Fair CLR 82 60.1 47% 82 29.95 1013.9
22 16:53 S 6 10.00 Fair CLR 82.9 59 44% 83 29.95 1014.0
22 15:53 SW 3 10.00 A Few Clouds FEW070 82.9 57 41% 82 29.96 1014.5
22 14:53 Calm 10.00 A Few Clouds FEW060 84.9 57.9 40% 84 29.99 1015.2
22 13:53 W 5 10.00 Fair CLR 84 55.9 38% 83 30 1015.7
22 12:53 SW 5 10.00 A Few Clouds FEW055 81 55.9 82.9 60.1 42% 81 30.03 1016.6
22 11:53 W 5 10.00 Fair CLR 81 57.9 45% 81 30.04 1016.9
22 10:53 W 5 10.00 Fair CLR 79 57 47% 80 30.05 1017.5
22 09:53 Calm 10.00 Fair CLR 75 55.9 52% 78 30.06 1017.8
22 08:53 Calm 10.00 Fair CLR 72 60.1 66% 30.07 1018.0
22 07:53 Calm 10.00 Fair CLR 64.9 57.9 78% 30.07 1018.1
22 06:53 Calm 10.00 Fair CLR 60.1 55.9 60.1 55.9 86% 30.07 1018.2
22 05:53 Calm 10.00 Fair CLR 55.9 53.1 90% 30.08 1018.4
22 04:53 Calm 10.00 Fair CLR 55.9 53.1 90% 30.07 1018.1
22 03:53 Calm 10.00 Fair CLR 57 54 90% 30.08 1018.3
22 02:53 W 3 10.00 Fair CLR 57.9 55 90% 30.08 1018.3
22 01:53 Calm 10.00 Fair CLR 59 55.9 90% 30.09 1018.8
22 00:53 Calm 10.00 Fair CLR 60.1 55.9 77 60.1 86% 30.1 1018.9
21 23:53 Calm 10.00 Fair CLR 62.1 55.9 80% 30.11 1019.4
21 22:53 Calm 10.00 Fair CLR 63 57.9 84% 30.12 1019.6
21 21:53 Calm 10.00 Fair CLR 64.9 57 76% 30.11 1019.5
21 20:53 E 3 9.00 Light Rain CLR 69.1 55.9 63% 30.11 1019.5
21 19:53 NE 9 10.00 Fair CLR 73.9 61 64% 30.1 1019.1
21 18:53 NE 9 10.00 Fair CLR 77 57 81 77 50% 79 30.1 1019.0
21 17:53 NE 12 10.00 Fair CLR 78.1 54 43% 79 30.1 1019.1
21 16:53 NE 10 10.00 Fair CLR 79 53.1 41% 79 30.11 1019.4
21 15:53 NE 9 10.00 Fair CLR 79 51.1 38% 79 30.12 1019.8
21 14:53 NE 9 10.00 Fair CLR 80.1 48 33% 79 30.14 1020.2
21 13:53 NE 9 10.00 Overcast OVC055 79 55 44% 80 30.14 1020.4
21 12:53 NE 8 10.00 Mostly Cloudy FEW043 BKN055 78.1 55 78.1 64.9 45% 79 30.14 1020.5
21 11:53 N 8 10.00 Mostly Cloudy BKN050 77 60.1 56% 79 30.15 1020.7
21 10:53 N 7 10.00 A Few Clouds FEW041 73.9 59 60% 30.15 1020.6
21 09:53 NE 9 10.00 Fair CLR 73 59 62% 30.15 1020.7
21 08:53 N 9 10.00 Fair CLR 69.1 57 66% 30.15 1020.7
21 07:53 N 6 10.00 Overcast OVC045 66.9 57 71% 30.15 1020.6
21 06:53 N 7 10.00 Overcast OVC045 64.9 57 69.1 64 76% 30.15 1020.6
21 05:53 N 7 10.00 Fair CLR 64 60.1 87% 30.13 1020.0
21 04:53 N 8 10.00 Fair CLR 66 62.1 87% 30.11 1019.4
21 03:53 N 8 10.00 Partly Cloudy FEW013 SCT040 66.9 64 91% 30.11 1019.1
21 02:53 N 5 10.00 Fair CLR 68 64 87% 30.09 1018.6
21 01:53 N 7 10.00 A Few Clouds FEW013 68 64 87% 30.1 1018.8
21 00:53 N 6 10.00 Fair CLR 69.1 64 82 69.1 84% 30.1 1018.9
20 23:53 NW 5 10.00 Overcast SCT049 OVC090 71.1 64 79% 30.1 1018.9
20 22:53 N 5 10.00 Mostly Cloudy BKN095 72 64 76% 30.1 1018.9
20 21:53 N 10 10.00 Fair CLR 73.9 64.9 74% 30.09 1018.6
20 20:53 N 9 10.00 Overcast OVC060 75 64.9 71% 77 30.08 1018.2
20 19:53 SW 5 10.00 Partly Cloudy SCT075 79 61 54% 80 30.06 1017.5
20 18:53 W 3 10.00 Mostly Cloudy SCT065 SCT080 BKN095 82 61 86 82 49% 83 30.05 1017.3
Date Time (cdt) Wind (mph) Vis. (mi.) Weather Sky Cond. Air Dwpt Max. Min. Relative Humidity Wind Chill (°F) Heat Index (°F) altimeter (in) sea level (mb) 1 hr 3 hr 6 hr
6 hour
Temperature (ºF) Pressure Precipitation (in)